Location: Cactus School
(34.5700°N, 118.0931°W)
Time: 22:00:32
(UTC-07:00)

Vanguard 2 - Pass Details

Date: 27 April 2024
Orbit: 553 x 2914 km, 32.9° (Epoch: 18 May)

Event Time Altitude Azimuth Distance (km) Brightness Sun altitude
Exits shadow 03:49:37 17° 274° (W) 4,478 11.0 -25.3°
Maximum altitude 04:03:01 81° 190° (S) 2,883 10.2 -23.2°
Drops below altitude 10° 04:20:48 10° 107° (ESE) 5,548 12.4 -20.2°
Sets 04:24:46 0° 106° (ESE) 6,400 12.8 -19.6°
